Home > Weather > Granby > Past weeks

Flag for Canada Weather for the Past 2 Weeks in Granby, Quebec, Canada

Now
46 °F

Cool.


Feels Like: 45 °F
Forecast: 44 / 60 °F
Wind: 3 mph from Northeast

Location: Frelighsburg

Current Time: May 5, 2016 at 7:27:21 AM

Latest Report: May 5, 2016 at 7:00 AM


Visibility: N/A

Pressure: 29.82 "Hg

Humidity: 84%

Dew Point: 41 °F

Location of GranbyLocation

Historic Weather in Granby — Graph

°F

Granby Temperature Yesterday

Maximum temperature yesterday: 56 °F (at 4:00 PM)
Minimum temperature yesterday: 40 °F (at 3:00 AM)
Average temperature yesterday: 48 °F

High & Low Weather Summary for the Past Weeks

 TemperatureHumidityPressure
High69 °F (Apr 21, 5:00 PM)100% (Apr 22, 9:00 AM)30.34 "Hg (Apr 22, 9:00 AM)
Low26 °F (Apr 28, 6:00 AM)11% (Apr 21, 1:00 PM)29.77 "Hg (Apr 22, 2:00 PM)
Average43 °F55%30.01 "Hg
* Reported Apr 20 6:00 AM — May 5 6:00 AM, Granby, Weather by CustomWeather, © 2016

Note: Actual official high and low records may vary slightly from our data, if they occured in-between our weather recording intervals... More about our weather records

Advertising

Granby Weather History for the Previous 24 Hours

Scroll right to see more
 ConditionsComfort  
Time TempWeatherWind HumidityBarometerVisibility
6:00 AM
Thu, May 5
45 °FCool.2 mph85%29.81 "HgN/A
5:00 AM45 °FQuite cool.2 mph85%29.80 "HgN/A
4:00 AM44 °FQuite cool.2 mph80%29.80 "HgN/A
3:00 AM45 °FQuite cool.2 mph84%29.81 "HgN/A
2:00 AM46 °FCool.2 mph82%29.82 "HgN/A
1:00 AM46 °FCool.1 mph83%29.82 "HgN/A
12:00 AM46 °FCool.1 mph83%29.82 "HgN/A
11:00 PM
Wed, May 4
48 °FCool.2 mph81%29.83 "HgN/A
10:00 PM48 °FCool.3 mph81%29.84 "HgN/A
9:00 PM48 °FCool.3 mph82%29.82 "HgN/A
8:00 PM50 °FCool.3 mph78%29.82 "HgN/A
7:00 PM51 °FCool.6 mph72%29.82 "HgN/A
6:00 PM54 °FCool.6 mph66%29.81 "HgN/A
5:00 PM55 °FRefreshingly cool.5 mph59%29.80 "HgN/A
4:00 PM56 °FRefreshingly cool.5 mph57%29.80 "HgN/A
3:00 PM55 °FCool.8 mph60%29.81 "HgN/A
2:00 PM55 °FCool.7 mph61%29.82 "HgN/A
1:00 PM54 °FCool.7 mph64%29.83 "HgN/A
12:00 PM55 °FRefreshingly cool.5 mph59%29.82 "HgN/A
11:00 AM54 °FCool.6 mph60%29.82 "HgN/A
10:00 AM49 °FCool.6 mph74%29.83 "HgN/A
9:00 AM49 °FCool.6 mph73%29.83 "HgN/A
8:00 AM46 °FCool.6 mph78%29.83 "HgN/A
7:00 AM45 °FQuite cool.6 mph80%29.82 "HgN/A
Weather by CustomWeather, © 2016

See weather overviewHow to use our weather pages